TimeEDT,TemperatureF,Dew PointF,Humidity,Sea Level PressureIn,VisibilityMPH,Wind Direction,Wind SpeedMPH,Gust SpeedMPH,PrecipitationIn,Events,Conditions,WindDirDegrees,DateUTC
12:09 AM,64.4,60.8,88,29.78,5.0,South,13.8,24.2,0.08,Rain,Rain,190,2013-05-24 04:09:00
12:31 AM,62.6,60.8,94,29.76,5.0,South,11.5,-,0.11,Rain,Light Rain,180,2013-05-24 04:31:00
12:56 AM,63.0,61.0,93,29.75,6.0,South,11.5,21.9,0.15,Rain,Light Rain,180,2013-05-24 04:56:00
1:56 AM,63.0,62.1,97,29.71,4.0,South,9.2,-,0.06,Rain,Light Rain,190,2013-05-24 05:56:00
2:56 AM,63.0,61.0,93,29.69,2.5,SSW,9.2,17.3,0.00,,Overcast,210,2013-05-24 06:56:00
3:25 AM,62.6,60.8,94,29.69,6.0,SW,9.2,-,0.04,Rain,Light Rain,220,2013-05-24 07:25:00
3:56 AM,63.0,61.0,93,29.68,10.0,SSW,3.5,-,0.06,,Overcast,210,2013-05-24 07:56:00
4:56 AM,62.1,60.1,93,29.68,10.0,SW,5.8,-,N/A,,Overcast,220,2013-05-24 08:56:00
5:56 AM,62.1,60.1,93,29.69,2.0,WSW,5.8,-,0.01,Rain,Light Rain,240,2013-05-24 09:56:00
6:32 AM,62.6,60.8,94,29.70,2.0,West,4.6,-,0.00,Rain,Light Rain,260,2013-05-24 10:32:00
6:56 AM,62.1,60.1,93,29.71,3.0,West,5.8,-,0.00,,Overcast,260,2013-05-24 10:56:00
7:56 AM,63.0,61.0,93,29.73,7.0,West,5.8,-,0.00,,Overcast,280,2013-05-24 11:56:00
8:56 AM,66.0,62.1,87,29.73,10.0,WSW,3.5,-,0.00,Rain,Light Rain,250,2013-05-24 12:56:00
9:56 AM,66.9,63.0,87,29.73,10.0,WSW,5.8,-,0.00,Rain,Light Rain,240,2013-05-24 13:56:00
10:17 AM,66.2,62.6,88,29.73,10.0,West,6.9,-,0.00,Rain,Light Rain,260,2013-05-24 14:17:00
10:56 AM,69.1,62.1,78,29.73,10.0,WNW,4.6,-,0.00,,Overcast,290,2013-05-24 14:56:00
11:18 AM,69.8,60.8,73,29.73,10.0,WNW,5.8,-,N/A,,Overcast,290,2013-05-24 15:18:00
11:56 AM,68.0,60.1,76,29.73,10.0,North,6.9,-,N/A,,Overcast,350,2013-05-24 15:56:00
12:56 PM,66.0,59.0,78,29.73,10.0,NW,13.8,-,N/A,,Overcast,310,2013-05-24 16:56:00
1:14 PM,62.6,57.2,82,29.74,10.0,NW,15.0,-,N/A,,Overcast,320,2013-05-24 17:14:00
1:56 PM,59.0,52.0,78,29.75,10.0,NW,17.3,25.3,N/A,,Overcast,320,2013-05-24 17:56:00
2:50 PM,57.2,51.8,82,29.75,10.0,NNW,20.7,28.8,0.00,Rain,Light Rain,330,2013-05-24 18:50:00
2:56 PM,57.9,52.0,81,29.76,10.0,NNW,18.4,28.8,0.00,Rain,Light Rain,330,2013-05-24 18:56:00
3:56 PM,55.9,48.0,75,29.77,10.0,NNW,23.0,28.8,N/A,,Overcast,340,2013-05-24 19:56:00
4:56 PM,54.0,45.0,72,29.78,10.0,NNW,20.7,33.4,N/A,,Overcast,340,2013-05-24 20:56:00
5:35 PM,51.8,46.4,82,29.79,2.0,North,18.4,28.8,0.00,Rain,Light Rain,350,2013-05-24 21:35:00
5:56 PM,51.1,46.9,86,29.80,7.0,NNW,18.4,-,0.02,Rain,Light Rain,330,2013-05-24 21:56:00
6:56 PM,51.1,46.9,86,29.81,8.0,NNW,15.0,25.3,0.00,Rain,Light Rain,330,2013-05-24 22:56:00
7:56 PM,50.0,46.9,89,29.86,8.0,NW,13.8,-,0.01,Rain,Light Rain,320,2013-05-24 23:56:00
8:56 PM,48.9,45.0,86,29.83,10.0,NNW,16.1,29.9,0.03,Rain,Light Rain,330,2013-05-25 00:56:00
9:56 PM,48.9,45.0,86,29.87,10.0,NW,10.4,-,0.01,Rain,Light Rain,320,2013-05-25 01:56:00
10:56 PM,48.0,44.1,86,29.83,10.0,NW,18.4,24.2,0.00,,Overcast,320,2013-05-25 02:56:00
11:56 PM,48.0,42.1,80,29.86,10.0,NNW,18.4,25.3,N/A,,Overcast,330,2013-05-25 03:56:00